When you browse on this site, cookies collect data to enhance your experience and personalize the content and advertising you see.
Visit our Privacy Policy to learn more. By continuing to use the site, you agree to this use of cookies and data.
  • In Lithuania
  • List of Countries
  • For 7 days
  • Water Temperature
  • Satellite Maps
  • Weather Map
  • Weather Widgets
  • user-avatar
    Login

    Hourly Weather Canillo

    Today, 24 July, Wednesday

    Time Temperature Precipitation Wind Pressure Humidity
    00:00 +18°C° 0 mm 1 mps 622 mmHg 51%
    01:00 +18°C° 0 mm 1 mps 622 mmHg 50%
    02:00 +18°C° 0 mm 1 mps 622 mmHg 48%
    03:00 +16°C° 0 mm 1 mps 621 mmHg 47%
    04:00 +18°C° 0 mm 1 mps 622 mmHg 48%
    05:00 +19°C° 0 mm 1 mps 622 mmHg 48%
    06:00 +19°C° 0 mm 1 mps 622 mmHg 49%
    07:00 +22°C° 0 mm 1 mps 623 mmHg 43%
    08:00 +25°C° 0 mm 1 mps 624 mmHg 36%
    09:00 +27°C° 0 mm 1 mps 625 mmHg 30%
    10:00 +28°C° 0 mm 1 mps 625 mmHg 29%
    11:00 +28°C° 0 mm 2 mps 625 mmHg 27%
    12:00 +29°C° 0 mm 2 mps 626 mmHg 26%
    13:00 +29°C° 0 mm 2 mps 625 mmHg 28%
    14:00 +28°C° 0 mm 2 mps 625 mmHg 30%
    15:00 +28°C° 0 mm 2 mps 624 mmHg 31%
    16:00 +27°C° 0 mm 2 mps 623 mmHg 39%
    17:00 +26°C° 0 mm 1 mps 623 mmHg 46%
    18:00 +24°C° 0 mm 1 mps 622 mmHg 54%
    19:00 +22°C° 0 mm 1 mps 622 mmHg 58%
    20:00 +20°C° 0 mm 1 mps 622 mmHg 62%
    21:00 +18°C° 0 mm 1 mps 621 mmHg 66%
    22:00 +18°C° 0 mm 1 mps 621 mmHg 63%
    23:00 +18°C° 0 mm 1 mps 620 mmHg 61%

    Tomorrow, 25 July, Thursday

    Time Temperature Precipitation Wind Pressure Humidity
    00:00 +17°C° 0 mm 2 mps 620 mmHg 58%
    01:00 +17°C° 0 mm 2 mps 620 mmHg 57%
    02:00 +17°C° 0 mm 2 mps 620 mmHg 56%
    03:00 +16°C° 0 mm 2 mps 620 mmHg 54%
    04:00 +17°C° 0 mm 2 mps 620 mmHg 53%
    05:00 +18°C° 0 mm 1 mps 620 mmHg 52%
    06:00 +19°C° 0 mm 1 mps 621 mmHg 51%
    07:00 +22°C° 0 mm 1 mps 622 mmHg 43%
    08:00 +24°C° 0 mm 2 mps 623 mmHg 36%
    09:00 +27°C° 0 mm 2 mps 624 mmHg 29%
    10:00 +28°C° 0 mm 2 mps 624 mmHg 28%
    11:00 +28°C° 0 mm 2 mps 624 mmHg 27%
    12:00 +29°C° 0 mm 2 mps 624 mmHg 26%
    13:00 +29°C° 0 mm 2 mps 624 mmHg 28%
    14:00 +28°C° 0 mm 2 mps 623 mmHg 30%
    15:00 +28°C° 0 mm 2 mps 623 mmHg 33%
    16:00 +27°C° 0 mm 2 mps 622 mmHg 39%
    17:00 +25°C° 0 mm 2 mps 622 mmHg 45%
    18:00 +24°C° 0 mm 2 mps 621 mmHg 52%
    19:00 +21°C° 0 mm 2 mps 620 mmHg 56%
    20:00 +19°C° 0 mm 2 mps 620 mmHg 60%
    21:00 +18°C° 0 mm 1 mps 619 mmHg 64%
    22:00 +18°C° 0 mm 1 mps 619 mmHg 63%
    23:00 +16°C° 0 mm 1 mps 619 mmHg 62%

    Day after tomorrow, 26 July, Friday

    Time Temperature Precipitation Wind Pressure Humidity
    00:00 +16°C° 0 mm 1 mps 619 mmHg 61%
    01:00 +16°C° 0 mm 1 mps 619 mmHg 62%
    02:00 +16°C° 0 mm 1 mps 618 mmHg 63%
    03:00 +15°C° 0 mm 1 mps 618 mmHg 64%
    04:00 +16°C° 0 mm 1 mps 618 mmHg 62%
    05:00 +16°C° 0 mm 1 mps 618 mmHg 61%
    06:00 +18°C° 0 mm 1 mps 619 mmHg 59%
    07:00 +20°C° 0 mm 1 mps 619 mmHg 53%
    08:00 +22°C° 0 mm 1 mps 620 mmHg 46%
    09:00 +24°C° 0 mm 2 mps 621 mmHg 40%
    10:00 +25°C° 0 mm 2 mps 621 mmHg 39%
    11:00 +25°C° 0 mm 2 mps 621 mmHg 39%
    12:00 +25°C° 0 mm 3 mps 621 mmHg 38%
    13:00 +24°C° 0.3 mm 3 mps 620 mmHg 44%
    14:00 +22°C° 0.3 mm 3 mps 619 mmHg 50%
    15:00 +21°C° 0.3 mm 3 mps 619 mmHg 56%
    16:00 +20°C° 0.8 mm 3 mps 618 mmHg 63%
    17:00 +19°C° 0.8 mm 2 mps 618 mmHg 69%
    18:00 +18°C° 0.8 mm 2 mps 617 mmHg 76%
    19:00 +16°C° 1.6 mm 1 mps 617 mmHg 80%
    20:00 +15°C° 1.6 mm 1 mps 617 mmHg 84%
    21:00 +14°C° 1.6 mm 1 mps 616 mmHg 88%
    22:00 +13°C° 0.2 mm 1 mps 616 mmHg 90%
    23:00 +13°C° 0.2 mm 1 mps 616 mmHg 91%

    27 July, Saturday

    Time Temperature Precipitation Wind Pressure Humidity
    00:00 +12°C° 0.2 mm 1 mps 615 mmHg 93%
    01:00 +12°C° 0.1 mm 1 mps 615 mmHg 94%
    02:00 +12°C° 0.1 mm 2 mps 615 mmHg 95%
    03:00 +12°C° 0.1 mm 2 mps 615 mmHg 96%
    04:00 +12°C° 0.4 mm 2 mps 615 mmHg 95%
    05:00 +12°C° 0.4 mm 2 mps 615 mmHg 95%
    06:00 +12°C° 0.4 mm 2 mps 615 mmHg 94%
    07:00 +12°C° 0.5 mm 2 mps 615 mmHg 92%
    08:00 +13°C° 0.5 mm 2 mps 615 mmHg 89%
    09:00 +13°C° 0.5 mm 2 mps 616 mmHg 87%
    10:00 +14°C° 0.7 mm 2 mps 615 mmHg 86%
    11:00 +14°C° 0.7 mm 2 mps 615 mmHg 85%
    12:00 +14°C° 0.7 mm 2 mps 615 mmHg 83%
    13:00 +14°C° 0.8 mm 2 mps 615 mmHg 83%
    14:00 +14°C° 0.8 mm 2 mps 615 mmHg 82%
    15:00 +14°C° 0.8 mm 2 mps 615 mmHg 81%
    16:00 +13°C° 0.4 mm 2 mps 615 mmHg 84%
    17:00 +12°C° 0.4 mm 2 mps 614 mmHg 86%
    18:00 +10°C° 0.4 mm 2 mps 614 mmHg 88%
    19:00 +9°C° 0 mm 2 mps 614 mmHg 89%
    20:00 +8°C° 0 mm 2 mps 614 mmHg 89%
    21:00 +8°C° 0 mm 2 mps 614 mmHg 90%
    22:00 +7°C° 0 mm 2 mps 614 mmHg 91%
    23:00 +6°C° 0 mm 2 mps 614 mmHg 92%

    28 July, Sunday

    Time Temperature Precipitation Wind Pressure Humidity
    00:00 +6°C° 0 mm 2 mps 614 mmHg 92%
    01:00 +5°C° 0 mm 2 mps 614 mmHg 93%
    02:00 +5°C° 0 mm 2 mps 614 mmHg 93%
    03:00 +5°C° 0 mm 2 mps 614 mmHg 93%
    04:00 +5°C° 0 mm 2 mps 614 mmHg 91%
    05:00 +6°C° 0 mm 2 mps 614 mmHg 89%
    06:00 +6°C° 0 mm 2 mps 615 mmHg 87%
    07:00 +8°C° 0 mm 2 mps 616 mmHg 78%
    08:00 +10°C° 0 mm 2 mps 616 mmHg 68%
    09:00 +13°C° 0 mm 2 mps 617 mmHg 59%
    10:00 +14°C° 0 mm 2 mps 618 mmHg 52%
    11:00 +16°C° 0 mm 2 mps 618 mmHg 44%
    12:00 +17°C° 0 mm 3 mps 619 mmHg 37%
    13:00 +17°C° 0 mm 3 mps 619 mmHg 38%
    14:00 +17°C° 0 mm 3 mps 619 mmHg 40%
    15:00 +17°C° 0 mm 3 mps 618 mmHg 41%
    16:00 +16°C° 0 mm 3 mps 618 mmHg 51%
    17:00 +14°C° 0 mm 3 mps 618 mmHg 60%
    18:00 +13°C° 0 mm 2 mps 617 mmHg 69%
    19:00 +12°C° 0 mm 2 mps 617 mmHg 77%
    20:00 +9°C° 0 mm 2 mps 617 mmHg 85%
    21:00 +8°C° 0 mm 2 mps 617 mmHg 92%
    22:00 +8°C° 0 mm 1 mps 617 mmHg 92%
    23:00 +8°C° 0 mm 1 mps 617 mmHg 91%

    29 July, Monday

    Time Temperature Precipitation Wind Pressure Humidity
    00:00 +8°C° 0 mm 1 mps 617 mmHg 91%
    01:00 +8°C° 0 mm 1 mps 616 mmHg 89%
    02:00 +7°C° 0 mm 1 mps 616 mmHg 87%
    03:00 +7°C° 0 mm 1 mps 616 mmHg 84%
    04:00 +8°C° 0 mm 1 mps 616 mmHg 80%
    05:00 +9°C° 0 mm 1 mps 617 mmHg 76%
    06:00 +10°C° 0 mm 1 mps 617 mmHg 72%
    07:00 +13°C° 0 mm 1 mps 618 mmHg 61%
    08:00 +16°C° 0 mm 1 mps 620 mmHg 50%
    09:00 +19°C° 0 mm 1 mps 621 mmHg 39%
    10:00 +20°C° 0 mm 1 mps 621 mmHg 38%
    11:00 +21°C° 0 mm 2 mps 621 mmHg 36%
    12:00 +23°C° 0 mm 2 mps 621 mmHg 35%
    13:00 +23°C° 0 mm 2 mps 621 mmHg 36%
    14:00 +23°C° 0 mm 2 mps 621 mmHg 36%
    15:00 +23°C° 0 mm 2 mps 621 mmHg 37%
    16:00 +21°C° 0 mm 2 mps 620 mmHg 43%
    17:00 +21°C° 0 mm 1 mps 620 mmHg 48%
    18:00 +19°C° 0 mm 1 mps 619 mmHg 54%
    19:00 +16°C° 0 mm 1 mps 619 mmHg 59%
    20:00 +14°C° 0 mm 1 mps 618 mmHg 65%
    21:00 +12°C° 0 mm 1 mps 618 mmHg 70%
    22:00 +12°C° 0 mm 1 mps 618 mmHg 69%
    23:00 +12°C° 0 mm 1 mps 618 mmHg 69%
    Show more